Location: Unspecified
(0.0000°N, 0.0000°E)
Time: 09:15:27
(UTC+00:00)

Vanguard 2 - Pass Details

Date: 25 October 2021
Orbit: 554 x 2936 km, 32.9° (Epoch: 06 December)

Event Time Altitude Azimuth Distance (km) Brightness Sun altitude
Rises 19:12:39 0° 222° (SW) 5,855 12.9 -21.6°
Reaches altitude 10° 19:16:27 10° 216° (SW) 5,110 12.3 -22.5°
Maximum altitude 19:31:40 48° 146° (SE) 3,519 10.6 -26.2°
Enters shadow 19:39:01 35° 100° (E) 4,059 10.6 -28.0°
Drops below altitude 10° 19:48:09 10° 77° (ENE) 5,544 - -30.2°
Sets 19:52:24 0° 72° (ENE) 6,372 - -31.3°
